Haines, AK

6:15 PM AKDT on April 25, 2018 (GMT -0800)
Haines

Weather History for PAHN - February, 2014

Change the Weather History Date:

Saturday, February 8, 2014

  Actual Average Record
Temperature  
Mean Temperature 20 °F -  
Max Temperature 23 °F 30 °F 48 °F (1982)
Min Temperature 17 °F 22 °F -11 °F (2008)
Degree Days  
Heating Degree Days 45    
Moisture  
Dew Point 3 °F    
Average Humidity 47    
Maximum Humidity 54    
Minimum Humidity 42    
Precipitation  
Precipitation 0.00 in - - ()
Sea Level Pressure  
Sea Level Pressure 30.28 in    
Wind  
Wind Speed 11 mph (NW)    
Max Wind Speed 15 mph    
Max Gust Speed 20 mph    
Visibility 10 miles    
Events      
Averages and records for this station are not official NWS values.
T = Trace of Precipitation, MM = Missing Value Source: NWS Daily Summary

Daily Weather History Graph

Daily Weather History Graph

Search for Another Location

Airport or City:

Astronomy

Feb. 08, 2014 Rise Set
Actual Time 7:54 AM AKST 4:38 PM AKST
Civil Twilight 7:10 AM AKST 5:22 PM AKST
Nautical Twilight 6:22 AM AKST 6:11 PM AKST
Astronomical Twilight 5:35 AM AKST 6:58 PM AKST
Moon 11:13 AM AKST (2/8) 3:38 AM AKST (2/8)
Length of Visible Light 10h 12m
Length of Day
8h 44m
Waxing Gibbous, 70% of the Moon is Illuminated
Feb 8
Waxing Gibbous
Feb 14
Full
Feb 22
Last Quarter
Feb 28
New
Mar 8
First Quarter

Hourly Weather History & Observations

Time (AKST) Temp. Windchill Dew Point Humidity Pressure Visibility Wind Dir Wind Speed Gust Speed Precip Events Conditions
12:54 AM 21.0 °F 9.9 °F 3.9 °F 48% 30.27 in 10.0 mi NW 10.4 mph - N/A   Clear
1:54 AM 21.0 °F 9.3 °F 3.9 °F 48% 30.28 in 10.0 mi NW 11.5 mph - N/A   Clear
2:54 AM 19.9 °F 6.7 °F 3.9 °F 50% 30.29 in 10.0 mi NW 13.8 mph - N/A   Clear
3:54 AM 19.9 °F 6.7 °F 3.0 °F 48% 30.29 in 10.0 mi NW 13.8 mph - N/A   Clear
4:54 AM 19.0 °F 6.1 °F 3.0 °F 50% 30.30 in 10.0 mi NNW 12.7 mph - N/A   Clear
5:54 AM 19.0 °F 5.6 °F 3.0 °F 50% 30.30 in 10.0 mi NW 13.8 mph - N/A   Clear
6:54 AM 17.1 °F 3.0 °F 3.0 °F 54% 30.30 in 10.0 mi NW 13.8 mph - N/A   Clear
7:54 AM 18.0 °F 6.9 °F 1.9 °F 50% 30.31 in 10.0 mi NNW 9.2 mph - N/A   Clear
8:54 AM 18.0 °F 3.6 °F 1.9 °F 50% 30.32 in 10.0 mi NW 15.0 mph - N/A   Clear
9:54 AM 19.0 °F 6.1 °F 1.9 °F 47% 30.33 in 10.0 mi NW 12.7 mph - N/A   Clear
10:54 AM 19.9 °F 7.3 °F 1.9 °F 46% 30.33 in 10.0 mi NW 12.7 mph - N/A   Clear
11:54 AM 21.0 °F 7.6 °F 1.9 °F 44% 30.32 in 10.0 mi WNW 15.0 mph - N/A   Clear
12:54 PM 21.9 °F 10.4 °F 3.0 °F 44% 30.31 in 10.0 mi WNW 11.5 mph - N/A   Clear
1:54 PM 23.0 °F 11.7 °F 3.0 °F 42% 30.29 in 9.0 mi NW 11.5 mph 19.6 mph N/A   Clear
2:54 PM 21.9 °F 10.4 °F 3.0 °F 44% 30.28 in 10.0 mi NW 11.5 mph - N/A   Clear
3:54 PM 21.9 °F 11.7 °F 3.0 °F 44% 30.27 in 10.0 mi WNW 9.2 mph - N/A   Clear
4:54 PM 21.0 °F 11.4 °F 3.0 °F 46% 30.26 in 10.0 mi NNW 8.1 mph - N/A   Clear
5:54 PM 19.9 °F 13.4 °F 3.0 °F 48% 30.26 in 10.0 mi NW 4.6 mph - N/A   Clear
6:54 PM 19.9 °F 12.1 °F 3.0 °F 48% 30.25 in 10.0 mi NNW 5.8 mph - N/A   Clear
7:54 PM 19.9 °F 11.1 °F 1.9 °F 46% 30.25 in 10.0 mi Variable 6.9 mph - N/A   Clear
8:54 PM 19.0 °F 9.0 °F 1.9 °F 47% 30.24 in 10.0 mi NNW 8.1 mph - N/A   Clear
9:54 PM 19.0 °F 12.3 °F 1.0 °F 46% 30.24 in 10.0 mi NW 4.6 mph - N/A   Clear
10:54 PM 19.0 °F 9.0 °F 1.0 °F 46% 30.23 in 10.0 mi NW 8.1 mph - N/A   Clear
11:54 PM 19.0 °F 8.2 °F 1.0 °F 46% 30.23 in 10.0 mi NW 9.2 mph - N/A   Clear